VU3IZK-13 Weather Reports


time (UTC)temp
C
wind
direction
speed
KPH
gust
KPH
rain 1hr
cm
rain 24hr
cm
rain mn
cm
humidity
%
barometer
mb
20260504174530 23 161 6.4 8.0 0.00 0.41 0.41 77
20260504173008 23 186 0.0 4.8 0.00 0.41 0.41 80
20260504171531 23 180 3.2 9.7 0.00 0.41 0.41 78
20260504081503 33 113 25.7 32.2 0.00 0.41 0.41 39
20260504050008 28 276 9.7 24.1 0.00 0.41 0.41 61
20260504044527 28 231 12.9 27.4 0.00 0.41 0.41 59
20260504043004 28 217 11.3 24.1 0.00 0.41 0.41 58
20260504041545 28 246 14.5 24.1 0.00 0.41 0.41 58
20260504040023 28 68 12.9 12.9 0.00 0.41 0.41 59
20260504034520 28 40 6.4 16.1 0.00 0.41 0.41 62
20260504033039 28 239 8.0 16.1 0.00 0.41 0.41 58
20260504031517 27 140 6.4 14.5 0.00 0.41 0.41 61
20260504030018 26 182 8.0 16.1 0.00 0.41 0.41 59
20260504024540 25 172 8.0 14.5 0.00 0.41 0.41 68
20260504023040 25 232 6.4 12.9 0.03 1.57 1.57 70
20260504021519 24 137 9.7 19.3 0.03 1.57 0.41 73
20260504020015 23 49 6.4 16.1 0.03 1.57 0.41 76
20260504014534 23 182 12.9 16.1 0.03 1.57 0.41 79
20260504013013 23 194 12.9 14.5 0.30 14.48 13.31 79
20260504011513 22 163 3.2 11.3 0.30 14.45 0.38 80
20260504010036 22 335 4.8 20.9 0.10 14.25 0.18 82
20260504004537 21 0 3.2 6.4 0.03 14.17 0.10 85
20260504003015 21 130 3.2 4.8 0.08 3.35 19.68 85
20260504001517 21 342 0.0 4.8 0.08 3.35 0.08 83
20260504000040 22 3 1.6 9.7 0.08 3.35 0.08 80
20260503234539 22 142 9.7 12.9 0.08 3.35 0.08 76
20260503233014 22 197 6.4 9.7 0.00 5.28 19.18 81
20260503231515 20 332 1.6 6.4 0.00 5.28 0.00 87
20260503230037 20 78 0.0 4.8 0.00 5.28 0.00 86
20260503224512 20 78 0.0 1.6 0.00 5.28 0.00 84
20260503223012 21 79 1.6 3.2 0.00 6.35 10.85 81
20260503221536 21 79 1.6 1.6 0.00 6.35 0.00 82
20260503220035 21 79 0.0 3.2 0.00 6.35 0.00 79
20260503214515 21 79 1.6 4.8 0.00 6.35 0.00 77
20260503213011 21 81 0.0 1.6 0.00 6.35 0.00 79
20260503211530 21 81 0.0 3.2 0.00 6.35 0.00 77
20260503210007 21 81 0.0 3.2 0.00 6.35 0.00 76
20260503204507 21 81 1.6 4.8 0.00 6.35 0.00 75
20260503203027 21 38 0.0 4.8 0.00 6.35 0.00 73
20260503201523 21 65 0.0 3.2 0.00 6.35 0.00 72
20260503200042 21 65 0.0 3.2 0.00 6.35 0.00 68
20260503194519 21 65 0.0 1.6 0.00 6.35 0.00 68
20260503193019 21 65 0.0 1.6 0.00 6.35 0.00 68
20260503191543 22 75 0.0 1.6 0.00 6.35 0.00 69
20260503190044 22 43 0.0 0.0 0.00 6.35 0.00 64
20260503184523 22 43 0.0 3.2 0.00 6.35 0.00 61
20260503183020 22 43 0.0 1.6 0.00 6.35 0.00 64
20260503181542 22 48 0.0 3.2 0.00 6.35 6.35 64